Volver al catálogo

FALCON 9 R/B

ActivoHEO
NORAD 48839·ROCKET BODY·🇺🇸 United States

Lanzado Jun 6, 2021 desde Cape Canaveral Space Force Station

Loading…

Próximos Pases (próximas 24 horas)

TLE

ActualizadoSource: Space-Track

Época: Sep 14, 2026, 09:18 UTC

1 48839U 21049B   26257.38796660  .00026378  00000-0  86999-3 0  9995
2 48839  27.0174  99.3957 5080820  21.0925 354.0468  5.58869409 91957

Sigue FALCON 9 R/B en tiempo real con AllMySat

Download on the App Store